SL-14 DEB, 45315

Orbit data source: Space-Track

SL-14 DEB, 45315 is space debris in LEO originally from a launch on Thu, 15 Aug 1991 UTC launched from the Plesetsk Missile And Space Complex (PKMTR). Debris objects in space refer to the collection of defunct objects orbiting the Earth. Examples of debris include non-operational satellites, rocket bodies, and fragments generated from explosions, collisions, or faulty payload assembly.

Loading next visibility...
Identifier
45315, 1991-056BD
Orbit
LEO
Country
Flag of CISCIS
Related business
Manufacturer
Unknown
Mission
Spacecraft
Bus & Motor
Unknown
Mass
Unknown
Launch date (UTC)
1991-08-15 (34 years ago)
Launch vehicle
Unknown
Launch site
Plesetsk Missile And Space Complex (PKMTR)
Object type
Payload
Rocket body
Debris
Shape & HBR
Unknown shape, 0.1 m
Radar Cross Section
Small (<0.1 m²)

Expand to show TLE details & history
Last TLE update: 13 hours ago

TLE from 13 hours ago
0 SL-14 DEB
1 45315U 91056BD  25354.47490798  .00000564  00000-0  14643-2 0  9991
2 45315  82.5601 272.9064 0028327 287.6976  72.1054 13.15445193279114
Epoch: 2025-12-20T11:23Z
TLE epoch observation values (Epoch: 2025-12-20T11:23:52.049Z)
Latitude
0.00002°
Longitude
12.63835°
Altitude
1,198.429 km
Speed
7.258 km/s
True Right ascension
18h 11m 37s
True Declination
0° 00' 00"
Sunlit
Object was in daylight at epoch
Visualization orbit readout
Latitude
Unknown
Longitude
Unknown
Altitude
Unknown
Speed
Unknown
Apparent Right ascension
Unknown
Apparent Declination
Unknown
Sunlit
N/A
Visualization observer readout
Local Sidereal Time
23:43:14
Azimuth
Unknown
Elevation
Unknown
Doppler factor
Unknown
Orbital elements
Apogee altitude
1,220.879 km
Perigee altitude
1,177.949 km
Semi-major axis
7,577.551 km
Eccentricity
0.00283
Inclination
82.5601°
RAAN
272.9064°
Arg. of periapsis
287.6976°
True anomaly
72.41464°
Mean anomaly
72.1054°
Eccentric anomaly
72.25998°
Mean motion
3.29041 °/min
Orbital period
109.41 mins
BSTAR
0.0014643
Loading maneuver chart data...
Computing Atmospheric mass density...
Loading historical data...
Loading historical data...
Loading historical data...
Loading historical data...
Loading historical data...
Loading historical data...
Loading historical data...

Documentation

Showing up to 5 results
|